"Pseudo-MPEC" for X65516

Created 2019 Feb 19 10:18:08 UT using Find_Orb

Click here for an explanation of pseudo-MPECs

 
 Astrometry: 
     X65516   C2019 02 03$Y?Astrometry4.+qBYehl[WMWredacted;AVR_[?#g,2S,62Kt1D29
     X65516   C2019 02 03vNTUclick:B!uTN-O^_4t$k;dGwhereg3(8an46HCPDE%RM2'fKoD29
     X65516   C2019 02 03:OaUnfor.KE/N2v0K7$9M]W%\]WcexplanationI_Ou.CJoyrXJ=D29

Station data:
(D29) Purple Mountain Observatory, XuYi Station  (N32.734366 E118.463900)
   China.  Observers H. B. Zhao, B. Li, G. Zhaori, R. Q. Hong, L. F. Hu.
   Measurers H. B. Zhao, B. Li. H. Lu, G. Zhaori. 1.04-m f/1.8 Schmidt + CCD.

Orbital elements:  X65516
   Perihelion 2019 Feb 10.007996 +/- 40.3 TT =  0:11:30 (JD 2458524.507996)
Epoch 2019 Feb  4.0 TT = JDT 2458518.5   Earth MOID: 0.4260   Ma: 0.0080
M 358.50567343 +/- 33               (J2000 ecliptic)          AutoNEOCP
n   0.24872297 +/- 0.355            Peri.  117.24489 +/- 120
a   2.50414098 +/- 2.38             Node    34.67960 +/- 43
e   0.4362121 +/- 0.257             Incl.    2.89788 +/- 12
P   3.96                   H 21.3   G  0.15   U 12.0  SR
q 1.41180437 +/- 0.528    Q 3.59647758 +/- 41.6
From 3 observations 2019 Feb. 3 (40.7 min); mean residual 0".34
Residuals in arcseconds: 
190203 D29  .12+  .31-    190203 D29  .24-  .63+    190203 D29  .12+  .31-    

Ephemerides (geocentric):
Date (UTC) HH   RA              Dec         delta   r     elong  mag " sig PA
---- -- -- --  -------------   -----------  ------ ------ -----  --- ---- ---
2019 02 19 10  12 00 17.341   +08 01 02.98  .46248 1.4147 152.4 21.4  75d   5
2019 02 19 11  12 00 18.139   +08 00 53.60  .46240 1.4147 152.4 21.4  75d   5
2019 02 19 12  12 00 18.933   +08 00 44.23  .46231 1.4147 152.5 21.4  75d   5
2019 02 19 13  12 00 19.722   +08 00 34.86  .46223 1.4147 152.5 21.4  75d   5
2019 02 19 14  12 00 20.507   +08 00 25.50  .46215 1.4148 152.6 21.4  75d   5
2019 02 19 15  12 00 21.288   +08 00 16.15  .46207 1.4148 152.6 21.4  75d   5
2019 02 19 16  12 00 22.064   +08 00 06.81  .46198 1.4148 152.6 21.4  75d   5
2019 02 19 17  12 00 22.835   +07 59 57.48  .46190 1.4148 152.7 21.4  75d   5
2019 02 19 18  12 00 23.603   +07 59 48.15  .46182 1.4149 152.7 21.4  75d   5
2019 02 19 19  12 00 24.366   +07 59 38.83  .46174 1.4149 152.7 21.4  75d   5
2019 02 19 20  12 00 25.124   +07 59 29.52  .46166 1.4149 152.8 21.4  75d   5
2019 02 19 21  12 00 25.878   +07 59 20.21  .46157 1.4149 152.8 21.4  75d   5
2019 02 19 22  12 00 26.628   +07 59 10.92  .46149 1.4150 152.9 21.4  75d   5
2019 02 19 23  12 00 27.373   +07 59 01.63  .46141 1.4150 152.9 21.4  75d   5
2019 02 20 00  12 00 28.114   +07 58 52.35  .46133 1.4150 152.9 21.4  75d   5
2019 02 20 01  12 00 28.850   +07 58 43.07  .46125 1.4151 153.0 21.3  75d   5
2019 02 20 02  12 00 29.582   +07 58 33.81  .46117 1.4151 153.0 21.3  75d   5
2019 02 20 03  12 00 30.310   +07 58 24.55  .46109 1.4151 153.0 21.3  75d   5
2019 02 20 04  12 00 31.033   +07 58 15.30  .46101 1.4151 153.1 21.3  75d   5
2019 02 20 05  12 00 31.752   +07 58 06.05  .46093 1.4152 153.1 21.3  75d   5
2019 02 20 06  12 00 32.466   +07 57 56.82  .46085 1.4152 153.1 21.3  75d   5
2019 02 20 07  12 00 33.176   +07 57 47.59  .46077 1.4152 153.2 21.3  75d   5
2019 02 20 08  12 00 33.882   +07 57 38.37  .46069 1.4152 153.2 21.3  75d   5
2019 02 20 09  12 00 34.583   +07 57 29.15  .46062 1.4153 153.3 21.3  75d   5
2019 02 20 10  12 00 35.280   +07 57 19.95  .46054 1.4153 153.3 21.3  75d   5
2019 02 20 11  12 00 35.973   +07 57 10.75  .46046 1.4153 153.3 21.3  75d   5
2019 02 20 12  12 00 36.661   +07 57 01.56  .46038 1.4154 153.4 21.3  75d   5
2019 02 20 13  12 00 37.344   +07 56 52.37  .46030 1.4154 153.4 21.3  75d   5
2019 02 20 14  12 00 38.024   +07 56 43.19  .46023 1.4154 153.4 21.3  75d   5
2019 02 20 15  12 00 38.699   +07 56 34.03  .46015 1.4154 153.5 21.3  75d   5
2019 02 20 16  12 00 39.369   +07 56 24.86  .46007 1.4155 153.5 21.3  76d   5
2019 02 20 17  12 00 40.036   +07 56 15.71  .45999 1.4155 153.6 21.3  76d   5
2019 02 20 18  12 00 40.697   +07 56 06.56  .45992 1.4155 153.6 21.3  76d   5
2019 02 20 19  12 00 41.355   +07 55 57.42  .45984 1.4156 153.6 21.3  76d   5
2019 02 20 20  12 00 42.008   +07 55 48.28  .45977 1.4156 153.7 21.3  76d   5
2019 02 20 21  12 00 42.657   +07 55 39.16  .45969 1.4156 153.7 21.3  76d   5
2019 02 20 22  12 00 43.301   +07 55 30.04  .45961 1.4156 153.7 21.3  76d   5
2019 02 20 23  12 00 43.941   +07 55 20.93  .45954 1.4157 153.8 21.3  76d   5
2019 02 21 00  12 00 44.577   +07 55 11.82  .45946 1.4157 153.8 21.3  76d   5
2019 02 21 01  12 00 45.208   +07 55 02.72  .45939 1.4157 153.9 21.3  76d   5
2019 02 21 02  12 00 45.835   +07 54 53.63  .45931 1.4158 153.9 21.3  76d   5
2019 02 21 03  12 00 46.458   +07 54 44.55  .45924 1.4158 153.9 21.3  76d   5
2019 02 21 04  12 00 47.076   +07 54 35.47  .45916 1.4158 154.0 21.3  76d   5
2019 02 21 05  12 00 47.690   +07 54 26.40  .45909 1.4159 154.0 21.3  76d   5
2019 02 21 06  12 00 48.299   +07 54 17.34  .45902 1.4159 154.0 21.3  76d   5
2019 02 21 07  12 00 48.904   +07 54 08.28  .45894 1.4159 154.1 21.3  76d   5
2019 02 21 08  12 00 49.505   +07 53 59.23  .45887 1.4159 154.1 21.3  76d   5
2019 02 21 09  12 00 50.102   +07 53 50.19  .45880 1.4160 154.2 21.3  76d   5